Meteo pe oră la Aberdeen

Astăzi, 3 August, Marţi

Timp Temperatura Precipitaţii Vânt Presiune Umiditate
00:00 +19°C° 0 mm 3 m/s 728 mmHg 38%
01:00 +18°C° 0 mm 3 m/s 728 mmHg 42%
02:00 +18°C° 0 mm 3 m/s 728 mmHg 45%
03:00 +18°C° 0 mm 2 m/s 728 mmHg 46%
04:00 +18°C° 0 mm 2 m/s 728 mmHg 47%
05:00 +18°C° 0 mm 2 m/s 728 mmHg 48%
06:00 +21°C° 0 mm 2 m/s 728 mmHg 41%
07:00 +25°C° 0 mm 2 m/s 728 mmHg 35%
08:00 +28°C° 0 mm 2 m/s 728 mmHg 28%
09:00 +29°C° 0 mm 2 m/s 728 mmHg 25%
10:00 +31°C° 0 mm 2 m/s 728 mmHg 22%
11:00 +34°C° 0 mm 2 m/s 728 mmHg 20%
12:00 +35°C° 0 mm 2 m/s 727 mmHg 18%
13:00 +35°C° 0 mm 2 m/s 727 mmHg 17%
14:00 +36°C° 0 mm 2 m/s 727 mmHg 16%
15:00 +36°C° 0 mm 2 m/s 726 mmHg 16%
16:00 +36°C° 0 mm 2 m/s 726 mmHg 16%
17:00 +35°C° 0 mm 2 m/s 726 mmHg 16%
18:00 +32°C° 0 mm 2 m/s 726 mmHg 19%
19:00 +29°C° 0 mm 3 m/s 725 mmHg 22%
20:00 +27°C° 0 mm 3 m/s 725 mmHg 25%
21:00 +26°C° 0 mm 4 m/s 725 mmHg 27%
22:00 +25°C° 0 mm 4 m/s 726 mmHg 29%
23:00 +23°C° 0 mm 5 m/s 726 mmHg 31%

Mâine, 4 August, Miercuri

Timp Temperatura Precipitaţii Vânt Presiune Umiditate
00:00 +22°C° 0 mm 5 m/s 726 mmHg 38%
01:00 +22°C° 0 mm 5 m/s 726 mmHg 44%
02:00 +21°C° 0 mm 5 m/s 726 mmHg 50%
03:00 +20°C° 0 mm 4 m/s 726 mmHg 54%
04:00 +19°C° 0 mm 4 m/s 726 mmHg 58%
05:00 +19°C° 0 mm 3 m/s 726 mmHg 62%
06:00 +22°C° 0 mm 4 m/s 726 mmHg 54%
07:00 +25°C° 0 mm 4 m/s 726 mmHg 46%
08:00 +28°C° 0 mm 5 m/s 726 mmHg 37%
09:00 +30°C° 0 mm 5 m/s 726 mmHg 34%
10:00 +33°C° 0 mm 5 m/s 725 mmHg 30%
11:00 +35°C° 0 mm 6 m/s 725 mmHg 26%
12:00 +35°C° 0 mm 5 m/s 725 mmHg 26%
13:00 +36°C° 0 mm 5 m/s 724 mmHg 25%
14:00 +36°C° 0 mm 5 m/s 724 mmHg 24%
15:00 +35°C° 0.1 mm 4 m/s 723 mmHg 28%
16:00 +34°C° 0.1 mm 4 m/s 723 mmHg 32%
17:00 +33°C° 0.1 mm 3 m/s 722 mmHg 36%
18:00 +30°C° 0 mm 3 m/s 722 mmHg 39%
19:00 +29°C° 0 mm 3 m/s 722 mmHg 43%
20:00 +27°C° 0 mm 3 m/s 722 mmHg 46%
21:00 +26°C° 0 mm 3 m/s 723 mmHg 49%
22:00 +25°C° 0 mm 3 m/s 723 mmHg 52%
23:00 +24°C° 0 mm 3 m/s 723 mmHg 55%

Poimâine, 5 August, Joi

Timp Temperatura Precipitaţii Vânt Presiune Umiditate
00:00 +22°C° 0 mm 3 m/s 723 mmHg 57%
01:00 +22°C° 0 mm 3 m/s 723 mmHg 58%
02:00 +21°C° 0 mm 2 m/s 722 mmHg 60%
03:00 +21°C° 0 mm 2 m/s 722 mmHg 62%
04:00 +21°C° 0 mm 2 m/s 722 mmHg 64%
05:00 +20°C° 0 mm 2 m/s 722 mmHg 66%
06:00 +24°C° 0.2 mm 2 m/s 723 mmHg 59%
07:00 +26°C° 0.2 mm 1 m/s 723 mmHg 53%
08:00 +28°C° 0.2 mm 1 m/s 723 mmHg 46%
09:00 +31°C° 0 mm 1 m/s 723 mmHg 39%
10:00 +34°C° 0 mm 1 m/s 723 mmHg 32%
11:00 +37°C° 0 mm 1 m/s 723 mmHg 25%
12:00 +37°C° 0 mm 1 m/s 723 mmHg 23%
13:00 +39°C° 0 mm 2 m/s 722 mmHg 21%
14:00 +39°C° 0 mm 2 m/s 722 mmHg 19%
15:00 +36°C° 0.3 mm 3 m/s 722 mmHg 26%
16:00 +31°C° 0.3 mm 3 m/s 721 mmHg 34%
17:00 +28°C° 0.3 mm 4 m/s 721 mmHg 42%
18:00 +27°C° 0.1 mm 3 m/s 721 mmHg 44%
19:00 +26°C° 0.1 mm 2 m/s 721 mmHg 45%
20:00 +25°C° 0.1 mm 2 m/s 722 mmHg 47%
21:00 +24°C° 0 mm 1 m/s 722 mmHg 51%
22:00 +23°C° 0 mm 1 m/s 722 mmHg 56%
23:00 +20°C° 0 mm 0 m/s 722 mmHg 61%

6 August, Vineri

Timp Temperatura Precipitaţii Vânt Presiune Umiditate
00:00 +21°C° 0 mm 1 m/s 723 mmHg 65%
01:00 +21°C° 0 mm 1 m/s 723 mmHg 68%
02:00 +20°C° 0 mm 1 m/s 723 mmHg 72%
03:00 +20°C° 0 mm 1 m/s 723 mmHg 72%
04:00 +19°C° 0 mm 2 m/s 723 mmHg 72%
05:00 +19°C° 0 mm 2 m/s 723 mmHg 73%
06:00 +22°C° 0 mm 3 m/s 723 mmHg 62%
07:00 +26°C° 0 mm 3 m/s 723 mmHg 51%
08:00 +29°C° 0 mm 3 m/s 724 mmHg 40%
09:00 +31°C° 0 mm 3 m/s 724 mmHg 35%
10:00 +35°C° 0 mm 3 m/s 723 mmHg 29%
11:00 +37°C° 0 mm 3 m/s 723 mmHg 24%
12:00 +38°C° 0 mm 3 m/s 723 mmHg 22%
13:00 +39°C° 0 mm 3 m/s 722 mmHg 20%
14:00 +40°C° 0 mm 3 m/s 722 mmHg 18%
15:00 +40°C° 0 mm 3 m/s 721 mmHg 18%
16:00 +39°C° 0 mm 3 m/s 721 mmHg 18%
17:00 +40°C° 0 mm 4 m/s 721 mmHg 18%
18:00 +37°C° 0 mm 4 m/s 721 mmHg 20%
19:00 +34°C° 0 mm 5 m/s 721 mmHg 23%
20:00 +32°C° 0 mm 6 m/s 721 mmHg 25%
21:00 +29°C° 0 mm 5 m/s 721 mmHg 29%
22:00 +28°C° 0 mm 4 m/s 721 mmHg 32%
23:00 +27°C° 0 mm 3 m/s 721 mmHg 36%

7 August, Sâmbătă

Timp Temperatura Precipitaţii Vânt Presiune Umiditate
00:00 +26°C° 0 mm 4 m/s 720 mmHg 40%
01:00 +26°C° 0 mm 4 m/s 720 mmHg 44%
02:00 +25°C° 0 mm 4 m/s 720 mmHg 48%
03:00 +25°C° 0 mm 5 m/s 720 mmHg 51%
04:00 +25°C° 0 mm 5 m/s 719 mmHg 53%
05:00 +25°C° 0 mm 5 m/s 719 mmHg 56%
06:00 +27°C° 0 mm 5 m/s 719 mmHg 51%
07:00 +29°C° 0 mm 6 m/s 719 mmHg 47%
08:00 +32°C° 0 mm 6 m/s 719 mmHg 42%
09:00 +34°C° 0 mm 6 m/s 719 mmHg 37%
10:00 +36°C° 0 mm 6 m/s 719 mmHg 32%
11:00 +40°C° 0 mm 6 m/s 718 mmHg 27%
12:00 +40°C° 0 mm 6 m/s 718 mmHg 25%
13:00 +41°C° 0 mm 6 m/s 718 mmHg 24%
14:00 +41°C° 0 mm 6 m/s 717 mmHg 22%
15:00 +37°C° 0.3 mm 9 m/s 718 mmHg 38%
16:00 +32°C° 0.3 mm 11 m/s 718 mmHg 55%
17:00 +26°C° 0.3 mm 14 m/s 718 mmHg 71%
18:00 +24°C° 1.5 mm 10 m/s 717 mmHg 74%
19:00 +23°C° 1.5 mm 6 m/s 717 mmHg 78%
20:00 +23°C° 1.5 mm 2 m/s 717 mmHg 81%
21:00 +21°C° 0 mm 2 m/s 717 mmHg 81%
22:00 +21°C° 0 mm 2 m/s 717 mmHg 81%
23:00 +21°C° 0 mm 2 m/s 717 mmHg 80%

8 August, Duminică

Timp Temperatura Precipitaţii Vânt Presiune Umiditate
00:00 +21°C° 0 mm 2 m/s 717 mmHg 82%
01:00 +21°C° 0 mm 2 m/s 717 mmHg 84%
02:00 +21°C° 0 mm 2 m/s 717 mmHg 85%
03:00 +20°C° 0.1 mm 2 m/s 717 mmHg 87%
04:00 +20°C° 0.1 mm 2 m/s 717 mmHg 88%
05:00 +20°C° 0.1 mm 2 m/s 717 mmHg 90%
06:00 +23°C° 0 mm 2 m/s 717 mmHg 78%
07:00 +26°C° 0 mm 2 m/s 717 mmHg 67%
08:00 +28°C° 0 mm 2 m/s 717 mmHg 55%
09:00 +31°C° 0 mm 2 m/s 717 mmHg 47%
10:00 +34°C° 0 mm 2 m/s 717 mmHg 38%
11:00 +37°C° 0 mm 2 m/s 717 mmHg 30%
12:00 +38°C° 0 mm 2 m/s 717 mmHg 26%
13:00 +40°C° 0 mm 2 m/s 716 mmHg 22%
14:00 +42°C° 0 mm 3 m/s 716 mmHg 17%
15:00 +42°C° 0 mm 3 m/s 716 mmHg 15%
16:00 +43°C° 0 mm 3 m/s 715 mmHg 13%
17:00 +43°C° 0 mm 4 m/s 715 mmHg 11%
18:00 +39°C° 0 mm 3 m/s 715 mmHg 14%
19:00 +35°C° 0 mm 3 m/s 715 mmHg 18%
20:00 +31°C° 0 mm 2 m/s 715 mmHg 21%
21:00 +30°C° 0 mm 3 m/s 715 mmHg 29%
22:00 +28°C° 0 mm 3 m/s 715 mmHg 36%
23:00 +27°C° 0 mm 3 m/s 715 mmHg 43%
Arată mai mult

Formular de consimțământ

Meteoprog și furnizorii noștri de servicii pot stoca și accesa date personale, precum cookies, identificatori de dispozitiv sau alte tehnologii similare pe dispozitivul dumneavoastră și procesa astfel de date pentru a personaliza conținutul și reclamele, dar și pentru a oferi caracteristici de social media și pentru a analiza traficul.

  • Stocarea și/sau accesarea informațiilor pe dispozitivul dumneavoastră

    Cookies, identificatori de dispozitiv sau alte informații pot fi stocate sau accesate pe dispozitiv în scopurile indicate mai sus.

  • Reclame și conținut personalizat, evaluarea reclamelor și a conținutului, informații despre audiențe și dezvoltarea produselor

    Reclamele și conținutul pot fi personalizate pe baza unui profil. Pot fi adăugate date suplimentare pentru a personaliza mai bine reclamele și conținutul. Performanța reclamelor și conținutului poate fi măsurată. Pot fi obținute informații despre utilizatorii care au văzut reclamele și conținutul. Aceste date pot fi utilizate pentru a dezvolta sau îmbunătăți experiența utilizatorilor, sistemele și software-ul.

Dând clic pe ‘Sunt de acord’, permiteți utilizarea cookie-urilor menționate, a identificatorilor de dispozitiv, balizelor web sau altor tehnologii similare. Setările pot fi modificate din browser-ul dispozitivului dumneavoastră.

În anumite scopuri, interesele legitime pot prima asupra consimțământului. Puteți citi mai multe informații în acest sens în Politica privind Confidențialitatea Datelor și Cookie.